Location: Bathsheba
(13.2167°N, 59.5167°W)
Time: 23:55:13
(UTC+00:00)

CZ-4 R/B - Pass Details

Date: 18 September 2020
Orbit: 530 x 600 km, 97.7° (Epoch: 20 October)

Event Time Altitude Azimuth Distance (km) Brightness Sun altitude
Rises 23:23:02 0° 189° (S) 2,814 5.0 -21.8°
Reaches altitude 10° 23:25:24 10° 200° (SSW) 1,922 4.2 -22.4°
Maximum altitude 23:29:01 29° 260° (W) 1,108 3.5 -23.2°
Drops below altitude 10° 23:32:41 10° 321° (NW) 1,935 4.7 -24.1°
Sets 23:35:05 0° 332° (NNW) 2,838 5.4 -24.7°
